STARLINK-34457

Last updated on Thu Jul 03 2025 00:02:06 GMT+0000 (Coordinated Universal Time)

1 64368U 25126AA 25183.58335648 -.01398139 00000+0 -16889-1 0 9992 2 64368 69.9992 310.1886 0003211 266.7029 338.4351 15.63220979 4329
UTC large
Height (km)
Speed (km/s)
/
Latitude / Longitude
Inclination (degrees)
Orbital Period (minutes)
Azimuth
Elevation
Range (km)
Doppler Factor

Next 0 passes for location: London (51.5072 / 0.1276)

Sorry there are no passes over London.